Regional Weather Roundup
Issued by NWS

Home | Current Version | Previous Version | Graphics & Text | Print | Product List | Glossary On
Versions: 1 2 3 4 5 6 7 8 9 10 11 12 13 14 15 16 17 18 19 20 21 22 23 24 25 26 27 28 29 30 31 32 33 34 35 36 37 38 39 40 41 42 43 44 45 46 47 48 49 50
000
ASUS43 KLOT 291308
RWRIL

ILLINOIS REGIONAL WEATHER ROUNDUP
NATIONAL WEATHER SERVICE CHICAGO/ROMEOVILLE IL
800 AM CDT SAT AUG 29 2015

NOTE: "FAIR" INDICATES FEW OR NO CLOUDS BELOW 12,000 FEET WITH NO
SIGNIFICANT WEATHER AND/OR OBSTRUCTIONS TO VISIBILITY.

* THESE STATIONS ARE NOT UNDER NWS QUALITY CONTROL. THEY ALSO MAY NOT
  REPORT WEATHER SUCH AS PRECIPITATION OR FOG.

ILZ001-002-007-009-015-016-024-291400-
NORTHWEST ILLINOIS

CITY           SKY/WX    TMP DP  RH WIND       PRES   REMARKS
MOLINE         CLOUDY    69  63  81 SW3       29.97R
STERLING*      CLOUDY    64  63  94 CALM      29.98R
SAVANNA*       CLOUDY    65  63  93 SE3       29.99R
$$

ILZ003-004-008-010-011-017-018-291400-
NORTH CENTRAL ILLINOIS

CITY           SKY/WX    TMP DP  RH WIND       PRES   REMARKS
ROCKFORD       LGT RAIN  64  61  90 SE6       30.03R FOG
FREEPORT*      CLOUDY    62  61  97 SE5       30.02R THUNDER FOG
ROCHELLE*      CLOUDY    63  60  92 CALM      30.03R THUNDER
DE KALB*       CLOUDY    63  61  95 E8        30.04R FOG
PERU*          CLOUDY    66  62  86 S7        30.01S
$$

ILZ005-006-012>014-019>023-291400-
NORTHEAST ILLINOIS

CITY           SKY/WX    TMP DP  RH WIND       PRES   REMARKS
CHICAGO-OHARE  LGT RAIN  64  62  93 E8        30.05R FOG
CHICAGO-MIDWAY LGT RAIN  66  61  84 E5        30.05R
AURORA         LGT RAIN  66  63  90 SE7       30.03R FOG
LANSING*       CLOUDY    64  61  90 E3        30.05F
JOLIET*        TSTM      65  63  91 E5        30.03S
WAUKEGAN       HVY RAIN  61  60  97 NE8       30.06S FOG
DUPAGE AIRPORT CLOUDY    64  61  90 E7        30.04R
KANKAKEE*      PTSUNNY   65  63  91 SE6       30.05F
WHEELING       LGT RAIN  64  62  93 NE6       30.08R FOG
MORRIS*        CLOUDY    65  62  89 SE5       30.01S
ROMEOVILLE*    TSTM      64  61  93 E6        30.04S
NORTHERLY ISL    N/A     63  60  90 SE1         N/A
$$

LMZ740>746-291400-
SOUTHERN LAKE MICHIGAN

STATION/POSITION SKY/WX   TEMP    WIND        PRES    VSBY  WAVE
                          AIR SEA DIR/SP/G                  HT/PER
                          (F)     (DEG/KT/KT) (MB)    (MI)  (FT/S)
SOUTHERN BUOY              67 68  210/  4/  8 1018.5R         2/ 3
WILMETTE HARBOR            60 56  260/  4/  4   N/A           1/ 3
HARRISON CRIB              65     140/ 10/ 11   N/A
BURNHAM HARBOR             62      CALM  /  6   N/A
MICHIGAN CITY              66     130/ 10/ 12   N/A
MICHIGAN CITY 6N           66 70  170/ 10/ 12   N/A           1
ST. JOSEPH                 66 70  140/  6/  8   N/A           1
$$

ILZ025>027-034>036-040-047-049-050-058-095>099-291400-
WEST-CENTRAL ILLINOIS

CITY           SKY/WX    TMP DP  RH WIND       PRES   REMARKS
QUINCY         PTSUNNY   69  63  81 S7        29.99S
GALESBURG*     CLOUDY    67  64  88 S5        29.99R
MACOMB*        PTSUNNY   70  64  81 S7        30.01S
JACKSONVILLE*  CLOUDY    70  65  84 S8        30.01S
PITTSFIELD*    PTSUNNY   68  64  85 SE3       30.02R
$$

ILZ028>032-037-038-041>044-048-051>054-059>061-291400-
CENTRAL ILLINOIS

CITY           SKY/WX    TMP DP  RH WIND       PRES   REMARKS
PONTIAC        CLOUDY    66  64  93 SE6       30.03S
BLOOMINGTON    LGT RAIN  66  65  97 S10       30.04S
DECATUR        CLOUDY    69  63  81 S8        30.05R
PEORIA         CLOUDY    70  63  78 S9        30.00R
LACON*         PTSUNNY   67  62  84 SE5       29.99S
LINCOLN*       CLOUDY    67  64  89 S3        30.03S
SPRINGFIELD    CLOUDY    70  65  84 S5        30.03R
TAYLORVILLE    CLOUDY    66  64  94 S5        30.04R
$$

ILZ033-039-045-046-055>057-062-063-291400-
EAST-CENTRAL ILLINOIS

CITY           SKY/WX    TMP DP  RH WIND       PRES   REMARKS
CHAMPAIGN      LGT RAIN  66  62  87 SE6       30.06R
RANTOUL*       CLOUDY    67  64  91 S5        30.06S
MATTOON        CLOUDY    68  62  81 S8        30.05S
PARIS*         CLOUDY    69  65  87 S6        30.08R
$$

ILZ079-100>102-291400-
SOUTHWEST ILLINOIS

CITY           SKY/WX    TMP DP  RH WIND       PRES   REMARKS
ALTON          PTSUNNY   68  64  88 S5        30.03S
BELLEVILLE     PTSUNNY   68  68 100 E3        30.02S
CAHOKIA*       PTSUNNY   71  65  81 SE5       30.02S
SPARTA*        MOSUNNY   68  66  92 S5        30.05S
$$

ILZ064>066-069>071-074>076-080>082-084>086-088>090-092>094-291400-
SOUTH-CENTRAL ILLINOIS

CITY           SKY/WX    TMP DP  RH WIND       PRES   REMARKS
CARBONDALE     PTSUNNY   69  66  90 SE3       30.06R
CAIRO*         CLOUDY    69  69 100 SE3       30.07S
EFFINGHAM*     PTSUNNY   69  63  80 SE3       30.07S
MARION         CLOUDY    70  68  94 CALM      30.07S
MT. VERNON     PTSUNNY   72  63  73 S3        30.07S
SALEM*         PTSUNNY   72  65  80 S5        30.05S
METROPOLIS*    CLOUDY    73  71  94 S3        30.09S
$$

ILZ067-068-072-073-078-083-087-091-291400-
SOUTHEAST ILLINOIS

CITY           SKY/WX    TMP DP  RH WIND       PRES   REMARKS
LAWRENCEVILLE  PTSUNNY   69  66  90 S5        30.09R
FLORA*         PTSUNNY   69  65  86 S3        30.07S
FAIRFIELD*     MOSUNNY   71  67  88 S5        30.06F
HARRISBURG*    CLOUDY    69  68  94 CALM      30.08S
ROBINSON*      PTSUNNY   68  65  91 S5        30.09R
CARMI*         PTSUNNY   68  67  98 CALM      30.08R FOG
$$

ABBREVIATIONS USED IN REMARKS
   TC - TEMPERATURE IN CELSIUS
  WCI - WIND CHILL INDEX
   HX - HEAT INDEX
  VSB - VISIBILITY
$$




USA.gov is the U.S. government's official web portal to all federal, state and local government web resources and services.